This demonstration page uses our WeatherBlox Daily Observations layout. Learn more.

Left ArrowRight Arrow

38.88101, -77.10428

Hourly Observations for April 14, 2021

Temp ( °F °C ) Dew Point ( °F °C ) Humidity (%) Winds ( mph kmh ) Pressure ( in mb ) Visibility ( mi km ) Precip ( " mm )
12:52 am 00:52 Partly Cloudy 55 12.8 48 8.9 77 77 SSW 5 7 30.11 1020 10 16.0934 0 0
1:52 am 01:52 Mostly Clear 53 11.7 49 9.4 86 86 SW 7 11 30.1 1019 10 16.0934 0 0
2:52 am 02:52 Mostly Clear 55 12.8 49 9.4 80 80 Calm 30.09 1019 10 16.0934 0 0
3:52 am 03:52 Mostly Clear 53 11.7 48 8.9 83 83 SSW 6 9 30.08 1019 10 16.0934 0 0
4:52 am 04:52 Clear 52 11.1 49 9.4 89 89 S 6 9 30.08 1019 10 16.0934 0 0
5:52 am 05:52 Partly Cloudy 52 11.1 49 9.4 89 89 S 7 11 30.09 1019 9 14.48406 0 0
6:52 am 06:52 Partly Cloudy 53 11.7 50 10 89 89 SSW 9 15 30.11 1020 7 11.26538 0 0
7:52 am 07:52 Mostly Cloudy with Mist and Fog 55 12.8 51 10.6 87 87 S 8 13 30.09 1019 6 9.65604 0 0
8:52 am 08:52 Mostly Cloudy 57 13.9 51 10.6 81 81 undefined N/A 30.1 1019 7 11.26538 0 0
9:52 am 09:52 Mostly Cloudy 60 15.6 52 11.1 75 75 S 10 17 30.07 1018 9 14.48406 0 0
10:52 am 10:52 Cloudy 62 16.7 50 10 65 65 S 10 17 30.09 1019 10 16.0934 0 0
11:52 am 11:52 Cloudy 62 16.7 52 11.1 70 70 SW 5 7 30.09 1019 10 16.0934 0.01 0.254
12:52 pm 12:52 Cloudy with Light Rain 61 16.1 53 11.7 75 75 S 3 6 30.08 1019 10 16.0934 0.01 0.254
1:52 pm 13:52 Cloudy with Light Rain 60 15.6 54 12.2 80 80 S 7 11 30.06 1018 8 12.87472 0.02 0.508
2:52 pm 14:52 Cloudy with Light Rain 59 15 54 12.2 83 83 S 8 13 30.03 1017 10 16.0934 0.02 0.508
3:52 pm 15:52 Cloudy with Light Rain 59 15 55 12.8 87 87 S 6 9 29.99 1016 9 14.48406 0.02 0.508
4:52 pm 16:52 Cloudy with Light Rain 59 15 55 12.8 87 87 S 6 9 29.97 1015 6 9.65604 0.04 1.016
5:47 pm 17:47 Cloudy with Light Rain 59 15 55 13 88 88 SSW 6 9 29.96 1015 8 12.87472 0.03 0.762
5:52 pm 17:52 Cloudy with Light Rain 59 15 55 12.8 87 87 SSW 6 9 29.96 1015 9 14.48406 0.03 0.762
6:52 pm 18:52 Cloudy 58 14.4 54 12.2 87 87 SW 6 9 29.97 1015 10 16.0934 0.01 0.254
7:52 pm 19:52 Cloudy with Light Rain 58 14.4 55 12.8 90 90 S 6 9 29.97 1015 9 14.48406 0.02 0.508
8:52 pm 20:52 Cloudy with Light Rain 58 14.4 55 12.8 90 90 SSW 7 11 29.96 1015 8 12.87472 0.03 0.762
9:52 pm 21:52 Cloudy with Light Rain 57 13.9 54 12.2 90 90 SSW 7 11 29.96 1014 8 12.87472 0.04 1.016
10:23 pm 22:23 Cloudy with Light Rain 58 14.4 55 12.8 90 90 S 10 17 29.93 1014 7 11.26538 0.02 0.508
10:52 pm 22:52 Cloudy with Light Rain 57 13.9 54 12.2 90 90 S 12 19 29.91 1013 10 16.0934 0.04 1.016
11:03 pm 23:03 Cloudy 57 13.9 53 11.7 87 87 S 10 17 29.91 1013 10 16.0934 0.001 0.001
11:52 pm 23:52 Cloudy with Light Rain 57 13.9 53 11.7 87 87 S 8 13 29.88 1012 10 16.0934 0.01 0.254

Powered by AerisWeather